Simultaneous Nadir Overpasses (SNOs) Predictions

Prediction of SNOs between METOP-B and TERRA Satellite Orbit:

Table of predicted SNOs for the next 14.0 days since TLE Epoch: 9/2/2017
Index Date (METOP-B) Time (METOP-B) Lat,Lon (METOP-B) SZA (METOP-B ) Date (TERRA) Time (TERRA) Lat,Lon (TERRA) SZA (TERRA ) Distance(km) Time Diff (sec)
1 09/02/2017 05:39:04 -81.35, -36.83 103.60 09/02/2017 05:39:27 -81.34, -37.01 103.61 3.15 23
2 09/02/2017 06:29:44 81.35, 130.65 76.44 09/02/2017 06:28:53 81.35, 130.78 76.43 2.18 51
3 09/05/2017 01:13:24 -81.35, 29.53 102.55 09/05/2017 01:13:42 -81.34, 29.56 102.54 0.48 18
4 09/05/2017 02:04:03 81.35,-162.62 77.53 09/05/2017 02:03:08 81.35,-162.67 77.50 0.87 55
5 09/07/2017 20:47:44 -81.34, 95.89 101.48 09/07/2017 20:47:57 -81.35, 96.07 101.45 3.13 13
6 09/07/2017 21:38:23 81.35, -96.29 78.59 09/07/2017 21:37:23 81.35, -96.18 78.58 1.88 60
7 09/10/2017 16:22:02 -81.35, 162.62 100.36 09/10/2017 16:22:11 -81.35, 162.52 100.37 1.67 9
8 09/10/2017 17:12:41 81.35, -29.58 79.72 09/10/2017 17:11:37 81.35, -29.76 79.66 2.96 64
9 09/13/2017 11:56:22 -81.35,-131.06 99.28 09/13/2017 11:56:26 -81.35,-131.10 99.28 0.71 4




NCC Satellite Simultaneous Nadir Overpasses (SNOs) Prediction Service
